Regional Weather Roundup
Issued by NWS

Home | Current Version | Previous Version | Text Only | Print | Product List | Glossary On
Versions: 1 2 3 4 5 6 7 8 9 10 11 12 13 14 15 16 17 18 19 20 21 22 23 24 25 26 27 28 29 30 31 32 33 34 35 36 37 38 39 40 41 42 43 44 45 46 47 48 49 50
000
ASUS43 KFSD 242202
RWRSD

WEATHER ROUNDUP FOR SOUTH DAKOTA
NATIONAL WEATHER SERVICE SIOUX FALLS SD
400 PM CST MON NOV 24 2014

NOTE: "FAIR" INDICATES FEW OR NO CLOUDS BELOW 12,000 FEET WITH NO
SIGNIFICANT WEATHER AND/OR OBSTRUCTIONS TO VISIBILITY.


SDZ001>005-009-010-012>017-242300-
NORTHWEST AND NORTH CENTRAL SOUTH DAKOTA

CITY           SKY/WX    TMP DP  RH WIND       PRES   REMARKS
BUFFALO          N/A     34  22  61 NW23      29.93R WCI  22
FAITH            N/A     30  15  53 NW23G29   29.97R WCI  17
MOBRIDGE       PTCLDY    27   9  46 NW14      29.95R WCI  16
$$

SDZ012>016-024>037-041>051-057-063-072>074-242300-
SOUTHWEST AND SOUTH CENTRAL SOUTH DAKOTA

CITY           SKY/WX    TMP DP  RH WIND       PRES   REMARKS
RAPID CTY ARPT FLURRIES  33  27  78 NW25G35   29.99R WCI  20
PIERRE         CLEAR     30   6  36 NW16      29.97R WCI  19
CUSTER         LGT SNOW  28  18  66 N12G20    29.93R WCI  18
PHILIP         PTCLDY   N/A N/A N/A NW18      30.00R
PINE RIDGE     LGT SNOW  31  28  89 N12       30.00R VSB 1   WCI  22
WINNER         FAIR      31   5  33 NW21      29.96R WCI  18
$$

SDZ004>011-016>023-039-040-242300-
NORTHEAST SOUTH DAKOTA

CITY           SKY/WX    TMP DP  RH WIND       PRES   REMARKS
ABERDEEN       CLEAR     26   6  42 NW24G31   29.92R WCI  11
WATERTOWN      CLEAR     21  12  68 NW23G31   29.82R WCI   5
SISSETON         N/A     21  13  71 N25G38    29.84R WCI   4
$$

SDZ017-020-022-023-036>040-048>070-242300-
SOUTHEAST SOUTH DAKOTA

CITY           SKY/WX    TMP DP  RH WIND       PRES   REMARKS
SIOUX FALLS    MOCLDY    25  14  63 N30G37    29.83R WCI   8
HURON          CLEAR     26  12  55 NW23G31   29.92R WCI  11
MITCHELL       CLEAR     29  14  53 NW23G32   29.93R WCI  15
YANKTON        CLEAR    N/A N/A N/A NW32      29.87R
$$

ABBREVIATIONS USED IN REMARKS
   TC - TEMPERATURE IN CELSIUS
  WCI - WIND CHILL INDEX
   HX - HEAT INDEX
  VSB - VISIBILITY



USA.gov is the U.S. government's official web portal to all federal, state and local government web resources and services.